SCOUT X-1 R/B, 82

Orbit data source: Space-Track

SCOUT X-1 R/B, 82 is space debris in LEO originally from a launch on Thu, 16 Feb 1961 UTC launched from the Wallops Island (WLPIS). Debris objects in space refer to the collection of defunct objects orbiting the Earth. Examples of debris include non-operational satellites, rocket bodies, and fragments generated from explosions, collisions, or faulty payload assembly.

Loading next visibility...
Identifier
82, 1961-004B
Orbit
LEO
Country
Flag of USUS
Related business
Manufacturer
ABL
Mission
Spacecraft
Bus & Motor
ALTAIR, Unknown motor
Mass
53 kg wet, 24 kg dry
Launch date (UTC)
1961-02-16 (65 years ago)
Launch vehicle
Unknown
Launch site
Wallops Island (WLPIS)
Object type
Payload
Rocket body
Debris
Shape & HBR
Unknown
Radar Cross Section
Medium (>0.1 m² and <1 m²)

Expand to show TLE details & history
Last TLE update: 17 hours ago

TLE from 17 hours ago
0 SCOUT X-1 R/B
1 00082U 61004B   26044.46083162  .00000258  00000-0  24782-3 0  9998
2 00082  38.8576  99.3587 1167337 347.0430  10.2519 12.27857811 61590
Epoch: 2026-02-13T11:03Z
TLE epoch observation values (Epoch: 2026-02-13T11:03:35.851Z)
Latitude
-0.00001°
Longitude
149.9614°
Altitude
650.484 km
Speed
7.952 km/s
True Right ascension
06h 37m 26s
True Declination
0° 00' 00"
Sunlit
Object was in full shadow at epoch
Visualization orbit readout
Latitude
Unknown
Longitude
Unknown
Altitude
Unknown
Speed
Unknown
Apparent Right ascension
Unknown
Apparent Declination
Unknown
Sunlit
N/A
Visualization observer readout
Local Sidereal Time
06:50:21
Azimuth
Unknown
Elevation
Unknown
Doppler factor
Unknown
Orbital elements
Apogee altitude
2,487.569 km
Perigee altitude
634.08 km
Semi-major axis
7,938.961 km
Eccentricity
0.11673
Inclination
38.8576°
RAAN
99.3587°
Arg. of periapsis
347.043°
True anomaly
13.02747°
Mean anomaly
10.2519°
Eccentric anomaly
11.59636°
Mean motion
3.0683 °/min
Orbital period
117.33 mins
BSTAR
0.00024782
Loading maneuver chart data...
Computing Atmospheric mass density...
Loading historical data...
Loading historical data...
Loading historical data...
Loading historical data...
Loading historical data...
Loading historical data...
Loading historical data...

Documentation

Showing up to 5 results
|